This is the latest recevied weather packets stored in our database for station/object DM2KB-13. If no packets are shown the sender has not sent any weather packets the latest 10 day(s).
| Time | Temp. | Humidity | Pressure | Rain* | Wind** | Luminosity | Snow |
|---|---|---|---|---|---|---|---|
| 1777480630 | 17.78° C | 38% | 1024.6 hPa | 0 mm | - | 44 W/m² | - |
| 1777480330 | 17.78° C | 38% | 1024.6 hPa | 0 mm | - | 123 W/m² | - |
| 1777480029 | 17.78° C | 37% | 1024.6 hPa | 0 mm | - | 297 W/m² | - |
| 1777479729 | 17.78° C | 37% | 1024.6 hPa | 0 mm | - | 77 W/m² | - |
| 1777479429 | 18.33° C | 37% | 1024.7 hPa | 0 mm | - | 86 W/m² | - |
| 1777479129 | 18.33° C | 37% | 1024.6 hPa | 0 mm | - | 174 W/m² | - |
| 1777478828 | 18.33° C | 37% | 1024.6 hPa | 0 mm | - | 60 W/m² | - |
| 1777478528 | 18.33° C | 36% | 1024.6 hPa | 0 mm | - | 376 W/m² | - |
| 1777478227 | 18.89° C | 37% | 1024.6 hPa | 0 mm | - | 399 W/m² | - |
| 1777477927 | 18.89° C | 36% | 1024.6 hPa | 0 mm | - | 415 W/m² | - |
| 1777477627 | 18.89° C | 36% | 1024.6 hPa | 0 mm | - | 345 W/m² | - |
| 1777477327 | 18.89° C | 36% | 1024.6 hPa | 0 mm | - | 439 W/m² | - |
| 1777477026 | 18.89° C | 37% | 1024.7 hPa | 0 mm | - | 452 W/m² | - |
| 1777476726 | 18.89° C | 35% | 1024.7 hPa | 0 mm | - | 462 W/m² | - |
| 1777476426 | 19.44° C | 35% | 1024.7 hPa | 0 mm | - | 476 W/m² | - |
| 1777476125 | 19.44° C | 37% | 1024.8 hPa | 0 mm | - | 487 W/m² | - |
| 1777475825 | 19.44° C | 35% | 1024.8 hPa | 0 mm | - | 504 W/m² | - |
| 1777475525 | 19.44° C | 36% | 1024.9 hPa | 0 mm | - | 513 W/m² | - |
| 1777475225 | 19.44° C | 37% | 1024.7 hPa | 0 mm | - | 526 W/m² | - |
| 1777474924 | 19.44° C | 37% | 1024.9 hPa | 0 mm | - | 534 W/m² | - |
| 1777474624 | 19.44° C | 37% | 1024.8 hPa | 0 mm | - | 547 W/m² | - |
| 1777474324 | 19.44° C | 36% | 1024.9 hPa | 0 mm | - | 557 W/m² | - |
| 1777474024 | 19.44° C | 36% | 1024.9 hPa | 0 mm | - | 568 W/m² | - |
| 1777473723 | 19.44° C | 36% | 1024.9 hPa | 0 mm | - | 580 W/m² | - |
| 1777473423 | 19.44° C | 36% | 1024.8 hPa | 0 mm | - | 594 W/m² | - |
* Rain latest hour (hover to see other rain measurements)
** Current wind speed in m/s (hover to see current wind gust speed)